Cloud_Cover
100 100 100 100 100 100 100 100 39 100 100 78 100 100 100 100 95 21 84 68 88 100 100 100 100 100 2 0 2 5 5 5 4 0 4 0 1 1 5 5 10 59 60
69 100 100 100 100 100 100 100 100 100 100 41 100 100 100 100 100 98 29 40 100 100 100 100 100 100 74 0 0 0 0 0 0 0 0 0 1 14 23 5 74 91 100
3 15 90 100 100 100 99 100 100 100 96 83 84 100 100 100 100 100 98 89 100 100 100 100 100 100 0 0 0 0 0 0 0 0 0 0 2 5 5 5 19 54 24
0 0 86 100 100 98 100 100 100 93 54 100 72 100 100 100 100 100 100 100 100 100 100 100 100 100 35 0 0 0 0 0 4 1 4 50 33 5 19 38 92 99 95
0 0 0 100 100 100 99 100 100 100 100 100 100 100 100 100 100 100 100 100 70 100 100 100 100 100 52 18 2 0 0 0 4 13 68 51 42 66 100 100 100 100 94
0 0 0 97 100 100 30 100 100 100 97 100 100 100 100 100 100 99 100 100 93 100 100 100 100 100 100 1 0 0 3 4 14 42 96 100 100 100 100 100 85 90 100
5 1 0 41 100 78 100 100 100 72 100 100 100 100 100 100 100 100 100 100 100 99 100 100 100 100 100 5 0 1 4 5 9 19 97 100 100 100 86 70 66 44 30
50 5 3 29 92 58 100 78 100 60 100 100 100 100 100 100 100 100 100 46 100 98 100 100 100 100 100 24 5 99 100 100 98 100 100 92 30 14 7 5 96 100 66
82 31 21 5 100 50 25 100 100 58 100 100 100 100 100 100 100 100 100 100 100 97 77 100 100 100 100 41 62 100 100 100 100 100 100 100 7 2 60 98 52 37 65
100 100 26 14 97 70 91 100 100 100 74 100 100 100 100 100 100 100 100 100 100 100 100 100 100 100 100 100 77 100 100 100 100 100 100 12 5 5 5 5 5 5 5
100 100 82 100 100 90 100 99 100 100 47 100 100 100 100 100 100 100 100 100 100 100 100 100 100 100 100 100 93 100 100 62 100 100 99 32 5 5 5 5 5 5 7
100 100 100 64 100 99 92 100 100 32 63 100 100 100 100 100 100 100 100 100 100 100 99 99 100 100 100 100 100 100 100 100 100 78 100 62 5 5 5 37 98 59 11
100 100 77 40 48 100 100 100 100 98 100 100 100 100 100 100 100 100 100 100 100 100 100 100 100 100 100 100 100 100 100 100 100 100 100 80 9 77 100 100 94 78 5
100 100 100 100 87 22 73 100 100 100 100 100 100 100 100 100 100 100 100 100 100 100 100 100 100 100 100 100 100 100 100 100 99 100 98 96 64 64 100 88 70 35 15
100 100 96 100 100 39 100 100 100 100 100 100 100 100 100 100 100 100 100 100 100 100 100 100 100 100 100 100 100 100 100 100 100 100 100 25 86 74 83 90 100 65 97
100 100 100 100 100 99 100 100 100 100 100 100 100 100 100 100 100 100 100 100 100 100 100 100 100 100 100 100 100 100 100 100 100 100 86 100 100 100 100 100 60 100 85
100 100 100 100 100 100 100 100 100 100 100 100 100 100 100 100 100 100 100 100 100 100 100 100 100 100 100 100 100 100 100 100 100 100 100 58 99 100 87 85 91 70 85
100 100 100 100 100 100 100 100 100 100 100 100 100 100 100 100 100 100 100 100 100 100 100 100 100 100 100 100 100 100 100 100 100 100 100 100 100 100 97 100 71 100 100
100 100 100 100 100 100 100 100 100 100 100 100 100 100 100 100 100 100 100 100 100 100 100 100 100 100 100 100 100 100 100 100 100 100 100 99 99 99 96 100 100 100 100
100 100 100 100 100 100 100 100 100 100 100 100 100 100 100 100 100 100 100 100 100 100 100 100 100 100 100 100 100 100 100 100 100 100 100 97 100 100 96 100 100 100 100
100 100 100 100 100 100 100 100 100 100 100 100 100 100 100 100 100 100 100 100 100 100 100 100 100 100 100 100 100 100 100 100 100 100 100 100 96 100 100 100 100 100 100
100 100 100 100 100 100 100 100 100 100 100 100 100 100 100 100 100 100 100 100 100 100 100 100 100 100 100 100 100 100 100 100 100 100 100 100 100 100 100 100 100 100 100
100 100 100 100 100 100 100 100 100 100 100 100 100 100 100 100 100 100 100 100 100 100 100 100 100 100 100 100 100 100 100 100 100 100 100 100 100 100 100 100 100 100 100
100 100 100 100 100 100 100 100 100 100 100 100 100 100 100 100 100 100 100 100 100 100 100 100 100 100 100 100 100 100 100 100 100 100 100 100 100 100 100 100 100 100 98
100 100 100 100 100 100 100 100 100 100 100 100 100 100 100 100 100 100 100 100 100 100 100 100 100 100 100 100 100 100 99 100 100 100 100 100 100 100 100 100 100 100 100
100 100 100 100 100 100 100 100 100 100 100 100 100 100 100 100 100 100 100 100 100 100 100 100 100 100 100 100 100 100 100 100 100 100 100 100 100 100 100 100 100 100 100